TimeCST,TemperatureF,Dew PointF,Humidity,Sea Level PressureIn,VisibilityMPH,Wind Direction,Wind SpeedMPH,Gust SpeedMPH,PrecipitationIn,Events,Conditions,WindDirDegrees,DateUTC
12:15 AM,20.8,18.9,92,29.95,10.0,SW,3.5,-,N/A,,Overcast,220,2014-02-16 06:15:00
12:35 AM,21.0,18.9,91,29.95,10.0,Calm,Calm,-,N/A,,Overcast,0,2014-02-16 06:35:00
12:55 AM,20.8,18.5,91,29.94,10.0,Calm,Calm,-,N/A,,Overcast,0,2014-02-16 06:55:00
1:15 AM,19.4,17.8,93,29.94,10.0,Calm,Calm,-,N/A,,Mostly Cloudy,0,2014-02-16 07:15:00
1:35 AM,18.5,17.6,96,29.94,10.0,WNW,3.5,-,N/A,,Scattered Clouds,290,2014-02-16 07:35:00
1:55 AM,16.3,16.0,98,29.96,7.0,WNW,5.8,-,N/A,,Mostly Cloudy,290,2014-02-16 07:55:00
2:15 AM,13.6,12.9,97,29.97,7.0,WNW,5.8,-,N/A,,Scattered Clouds,290,2014-02-16 08:15:00
2:35 AM,13.5,12.4,95,29.98,7.0,WNW,5.8,-,N/A,,Clear,290,2014-02-16 08:35:00
2:55 AM,12.7,11.7,95,29.98,7.0,WNW,4.6,-,N/A,,Clear,300,2014-02-16 08:55:00
3:15 AM,11.5,10.9,98,29.99,7.0,NW,6.9,-,N/A,,Scattered Clouds,310,2014-02-16 09:15:00
3:35 AM,13.3,13.3,100,30.01,7.0,WNW,6.9,-,N/A,,Overcast,300,2014-02-16 09:35:00
3:55 AM,17.1,16.5,98,30.02,7.0,WNW,8.1,-,N/A,,Overcast,300,2014-02-16 09:55:00
4:15 AM,17.4,16.5,96,30.04,7.0,WNW,10.4,-,N/A,,Overcast,290,2014-02-16 10:15:00
4:35 AM,18.3,17.1,95,30.04,7.0,WNW,10.4,-,N/A,,Overcast,300,2014-02-16 10:35:00
4:55 AM,18.5,17.2,95,30.07,7.0,West,11.5,-,N/A,,Overcast,280,2014-02-16 10:55:00
5:15 AM,18.1,17.1,96,30.07,7.0,West,11.5,-,N/A,,Overcast,280,2014-02-16 11:15:00
5:35 AM,18.5,17.4,96,30.09,7.0,WNW,10.4,-,N/A,,Overcast,300,2014-02-16 11:35:00
5:55 AM,19.2,17.6,93,30.09,7.0,WNW,10.4,-,N/A,,Overcast,290,2014-02-16 11:55:00
6:15 AM,19.6,18.1,94,30.09,7.0,NW,10.4,-,N/A,,Overcast,310,2014-02-16 12:15:00
6:35 AM,19.6,17.8,93,30.09,7.0,NW,9.2,-,N/A,,Overcast,310,2014-02-16 12:35:00
6:55 AM,19.8,18.0,93,30.11,7.0,NW,9.2,-,N/A,,Overcast,310,2014-02-16 12:55:00
7:15 AM,19.9,18.1,93,30.12,7.0,NNW,10.4,-,N/A,,Overcast,330,2014-02-16 13:15:00
7:35 AM,20.1,18.1,92,30.13,7.0,NW,9.2,-,N/A,,Overcast,320,2014-02-16 13:35:00
7:55 AM,20.3,18.1,91,30.14,7.0,NNW,10.4,-,N/A,,Overcast,340,2014-02-16 13:55:00
8:15 AM,19.6,17.2,91,30.15,7.0,NNW,10.4,-,N/A,,Overcast,340,2014-02-16 14:15:00
8:35 AM,19.4,17.4,92,30.16,5.0,North,10.4,-,N/A,,Overcast,350,2014-02-16 14:35:00
8:55 AM,19.6,17.4,91,30.17,5.0,NNW,9.2,-,N/A,,Overcast,340,2014-02-16 14:55:00
9:15 AM,20.3,17.2,88,30.17,7.0,North,16.1,-,N/A,,Overcast,350,2014-02-16 15:15:00
9:35 AM,20.3,16.9,87,30.18,7.0,North,12.7,-,N/A,,Overcast,350,2014-02-16 15:35:00
9:55 AM,19.9,16.2,85,30.19,7.0,North,9.2,-,N/A,,Mostly Cloudy,350,2014-02-16 15:55:00
10:15 AM,21.9,17.1,82,30.20,7.0,North,9.2,-,N/A,,Scattered Clouds,350,2014-02-16 16:15:00
10:35 AM,22.5,16.9,79,30.20,10.0,North,10.4,-,N/A,,Clear,350,2014-02-16 16:35:00
10:55 AM,23.0,16.9,77,30.21,7.0,NNW,8.1,-,N/A,,Clear,330,2014-02-16 16:55:00
11:15 AM,23.5,16.5,75,30.22,10.0,NNW,8.1,-,N/A,,Clear,330,2014-02-16 17:15:00
11:35 AM,23.9,16.3,73,30.21,10.0,NNW,8.1,-,N/A,,Clear,330,2014-02-16 17:35:00
11:55 AM,24.4,17.2,74,30.21,10.0,North,6.9,-,N/A,,Clear,350,2014-02-16 17:55:00
12:15 PM,25.0,16.9,71,30.21,10.0,North,5.8,-,N/A,,Clear,350,2014-02-16 18:15:00
12:35 PM,25.0,16.3,70,30.20,10.0,North,3.5,-,N/A,,Clear,360,2014-02-16 18:35:00
12:55 PM,25.5,16.9,70,30.20,10.0,Calm,Calm,-,N/A,,Clear,0,2014-02-16 18:55:00
1:15 PM,24.6,15.8,69,30.21,10.0,Calm,Calm,-,N/A,,Clear,0,2014-02-16 19:15:00
1:35 PM,25.2,16.2,69,30.20,10.0,Calm,Calm,-,N/A,,Clear,0,2014-02-16 19:35:00
1:55 PM,24.8,16.3,70,30.20,10.0,Calm,Calm,-,N/A,,Scattered Clouds,0,2014-02-16 19:55:00
2:15 PM,25.0,16.7,71,30.21,10.0,Calm,Calm,-,N/A,,Scattered Clouds,0,2014-02-16 20:15:00
2:35 PM,24.8,16.3,70,30.20,10.0,NNE,6.9,-,N/A,,Scattered Clouds,30,2014-02-16 20:35:00
2:55 PM,24.3,15.4,69,30.20,10.0,NE,5.8,-,N/A,,Clear,50,2014-02-16 20:55:00
3:15 PM,22.6,14.9,72,30.21,10.0,NNE,5.8,-,N/A,,Clear,20,2014-02-16 21:15:00
3:35 PM,21.4,15.1,77,30.21,10.0,NNE,5.8,-,N/A,,Clear,30,2014-02-16 21:35:00
3:55 PM,22.1,16.0,77,30.21,10.0,Calm,Calm,-,N/A,,Clear,0,2014-02-16 21:55:00
4:15 PM,19.9,14.9,81,30.21,10.0,North,3.5,-,N/A,,Clear,10,2014-02-16 22:15:00
4:35 PM,19.6,14.0,79,30.21,10.0,NNE,3.5,-,N/A,,Clear,30,2014-02-16 22:35:00
4:55 PM,20.1,15.3,81,30.21,10.0,ENE,3.5,-,N/A,,Clear,60,2014-02-16 22:55:00
5:15 PM,21.0,15.1,78,30.21,10.0,East,4.6,-,N/A,,Clear,100,2014-02-16 23:15:00
5:35 PM,21.2,15.6,79,30.22,10.0,ESE,3.5,-,N/A,,Clear,120,2014-02-16 23:35:00
5:55 PM,21.0,15.6,80,30.22,10.0,SE,3.5,-,N/A,,Clear,130,2014-02-16 23:55:00
6:15 PM,20.8,15.8,81,30.22,10.0,ESE,3.5,-,N/A,,Scattered Clouds,110,2014-02-17 00:15:00
6:35 PM,20.8,15.8,81,30.22,10.0,East,4.6,-,N/A,,Mostly Cloudy,100,2014-02-17 00:35:00
6:55 PM,20.8,15.6,80,30.22,10.0,ESE,3.5,-,N/A,,Scattered Clouds,110,2014-02-17 00:55:00
7:15 PM,20.7,16.2,83,30.21,10.0,East,5.8,-,N/A,,Scattered Clouds,90,2014-02-17 01:15:00
7:35 PM,20.8,15.6,80,30.20,10.0,East,6.9,-,N/A,,Scattered Clouds,80,2014-02-17 01:35:00
7:55 PM,20.7,15.3,80,30.19,10.0,East,5.8,-,N/A,,Clear,100,2014-02-17 01:55:00
8:15 PM,20.7,15.6,81,30.19,10.0,East,4.6,-,N/A,,Scattered Clouds,100,2014-02-17 02:15:00
8:35 PM,20.5,15.3,80,30.19,10.0,East,5.8,-,N/A,,Scattered Clouds,100,2014-02-17 02:35:00
8:55 PM,20.7,15.3,80,30.19,10.0,East,6.9,-,N/A,,Scattered Clouds,100,2014-02-17 02:55:00
9:15 PM,20.3,15.6,82,30.19,10.0,East,6.9,-,N/A,,Mostly Cloudy,100,2014-02-17 03:15:00
9:35 PM,20.7,15.8,81,30.19,10.0,ESE,8.1,-,N/A,,Overcast,110,2014-02-17 03:35:00
9:55 PM,20.8,16.3,83,30.19,10.0,East,9.2,-,N/A,,Overcast,100,2014-02-17 03:55:00
10:15 PM,20.8,16.7,84,30.19,10.0,ESE,8.1,-,N/A,,Overcast,110,2014-02-17 04:15:00
10:35 PM,20.8,16.7,84,30.18,10.0,East,10.4,-,N/A,,Overcast,100,2014-02-17 04:35:00
10:55 PM,20.8,16.7,84,30.17,10.0,ESE,10.4,-,N/A,,Overcast,110,2014-02-17 04:55:00
11:15 PM,20.8,16.5,83,30.16,10.0,ESE,11.5,18.4,N/A,,Overcast,120,2014-02-17 05:15:00
11:35 PM,20.8,15.8,81,30.16,10.0,SE,10.4,16.1,N/A,,Overcast,130,2014-02-17 05:35:00
11:55 PM,21.0,15.8,80,30.16,10.0,SE,8.1,-,N/A,,Overcast,130,2014-02-17 05:55:00